Dewpoint
65 69 72 72 71 71 72 72 72 71 72 71 71 71 71 72 71 71 70 69 69 69 68 68 68 68 68 68 68 68 68 68 68 69 70 70 69 69 68 67 68 67 67
64 69 72 72 71 72 72 72 72 71 72 72 71 71 71 71 71 70 70 69 68 68 67 69 69 69 68 67 68 68 68 69 69 70 70 69 70 69 68 67 68 67 69
65 68 70 72 72 72 73 73 72 72 72 72 72 70 70 71 71 70 69 69 68 67 67 67 69 70 70 69 68 68 68 68 69 69 69 67 68 68 68 69 69 68 69
62 65 67 72 72 72 72 73 72 72 72 72 72 71 69 70 71 70 70 71 70 70 68 68 68 69 69 69 69 68 67 68 69 68 66 67 67 69 69 68 67 67 67
53 66 66 71 72 72 72 72 72 72 71 72 72 71 71 70 69 70 71 70 71 70 70 69 67 68 69 68 68 68 67 67 66 66 66 67 68 68 68 67 66 65 65
47 53 63 70 71 71 71 71 72 71 71 71 71 71 71 71 71 71 71 70 71 71 70 68 68 67 68 68 68 66 67 68 67 66 66 67 66 68 67 66 65 64 64
48 53 62 68 71 70 71 71 71 72 71 71 71 71 71 72 72 71 70 70 70 70 70 68 67 67 67 68 67 65 67 67 65 64 64 64 65 67 66 64 63 63 62
49 50 59 64 67 70 70 70 70 71 71 71 71 71 71 71 70 70 70 69 69 69 68 67 67 67 67 67 67 66 67 65 63 63 63 64 66 64 63 63 63 63 63
54 52 56 61 64 66 69 69 69 70 71 70 70 71 70 69 70 70 69 68 68 67 67 66 66 66 67 68 66 67 65 64 61 60 61 62 66 64 62 62 64 64 63
58 58 57 59 61 62 64 68 68 68 69 69 69 68 68 68 68 69 68 67 67 66 66 66 66 67 68 68 67 66 64 63 59 59 60 62 64 63 62 64 66 66 66
52 58 58 58 58 60 62 65 67 67 67 67 68 67 67 67 67 66 65 66 66 66 66 66 66 68 67 67 66 64 62 59 58 59 59 64 62 62 62 64 65 65 66
43 56 58 57 58 59 61 60 63 66 67 67 67 67 67 65 64 63 63 65 66 66 65 65 67 68 65 63 62 61 59 58 58 59 59 63 61 61 64 65 65 63 64
45 52 58 57 57 57 58 58 59 66 65 66 66 66 65 63 62 62 62 63 63 63 63 64 64 63 61 61 60 58 58 57 57 58 61 63 61 61 64 64 64 64 63
45 50 57 56 56 55 56 57 57 61 66 66 66 65 63 61 61 60 61 60 62 62 59 61 61 60 60 60 59 56 57 57 57 57 59 61 61 63 64 64 62 63 62
45 50 56 55 55 55 55 55 56 56 58 59 64 64 63 61 60 60 60 59 61 59 59 60 60 60 59 58 57 55 56 56 56 55 55 59 62 64 63 62 61 62 61
46 52 56 55 54 54 53 53 55 56 58 58 59 59 58 61 60 59 59 58 61 59 59 59 60 59 56 54 53 55 55 54 54 54 53 57 61 62 61 61 61 61 60
46 54 55 55 54 54 53 52 53 54 57 58 58 58 58 58 60 58 58 57 60 58 58 58 59 57 53 52 53 54 54 54 54 54 53 53 57 59 61 59 58 58 59
48 54 54 56 54 53 52 51 51 52 53 55 58 57 58 58 60 58 57 57 60 58 57 56 55 52 52 50 52 53 53 53 53 53 53 53 54 55 59 59 57 56 56
48 51 53 54 53 53 52 51 50 51 52 52 53 56 57 60 61 57 56 57 59 57 56 55 53 52 49 49 50 51 53 53 53 52 52 52 53 53 53 58 59 57 56
52 52 53 53 52 52 53 53 51 52 54 53 53 54 56 57 60 59 56 57 58 56 55 53 51 51 47 46 49 47 48 50 52 52 51 51 51 51 50 49 50 53 57
51 51 51 52 52 52 52 51 52 51 53 51 55 54 54 55 56 59 56 57 57 55 53 51 50 45 42 44 44 44 44 42 47 48 48 49 49 49 48 47 47 48 52
51 50 51 52 51 51 52 52 52 51 52 53 54 55 55 54 54 57 56 56 55 53 51 49 46 43 43 44 43 43 40 41 43 42 43 45 47 47 45 45 45 46 48
49 50 52 53 54 53 52 52 52 51 51 51 52 53 55 55 54 54 55 54 53 49 49 48 45 43 43 45 43 43 41 38 42 44 42 43 44 44 42 42 44 45 46
50 50 52 54 53 54 52 52 50 50 49 50 51 51 53 56 54 55 55 52 49 48 47 46 44 44 43 43 46 43 43 43 41 42 44 44 44 44 43 44 43 43 45
51 53 52 53 53 53 54 53 51 50 50 50 50 51 52 53 55 55 55 53 48 47 46 45 44 43 44 44 44 42 41 42 44 43 42 44 45 45 45 45 45 45 44
52 53 53 53 53 54 53 52 50 49 50 49 49 49 50 51 53 54 54 53 49 47 46 45 44 44 45 45 44 42 41 40 39 41 42 42 43 45 45 46 45 45 46
Lifted_Index
-2 -3 -3 -3 -3 -3 -4 -4 -3 -2 -2 -2 -2 -2 -2 -2 -2 -2 -1 -0 -0 0 0 0 0 0 1 1 1 1 1 1 1 1 1 0 0 1 1 2 1 1 1
-2 -3 -3 -3 -3 -3 -4 -4 -3 -3 -3 -3 -2 -2 -2 -2 -2 -1 -1 -0 0 0 1 0 0 0 1 1 1 1 1 1 1 1 1 1 0 1 1 1 1 1 1
-1 -2 -3 -3 -3 -4 -4 -4 -3 -3 -3 -3 -3 -2 -1 -1 -2 -1 -1 -0 0 1 1 1 0 -0 0 1 1 1 1 1 1 1 1 0 0 0 1 1 1 1 1
0 -1 -2 -3 -3 -3 -4 -4 -3 -3 -3 -3 -3 -2 -1 -1 -1 -1 -1 -1 -0 0 1 1 1 0 0 1 1 1 2 1 1 1 1 0 0 0 0 1 1 1 2
4 2 -0 -2 -3 -3 -3 -3 -3 -3 -3 -3 -3 -2 -1 -1 -1 -1 -1 -1 -1 -0 0 1 1 1 1 1 1 2 2 2 2 1 1 0 0 0 1 1 2 2 3
7 5 2 -1 -2 -2 -2 -3 -3 -3 -3 -2 -2 -2 -2 -2 -1 -1 -1 -1 -1 -0 0 1 1 1 1 1 1 2 2 2 2 2 1 1 1 1 2 2 3 3 4
9 7 5 1 -1 -2 -2 -2 -3 -3 -3 -3 -2 -2 -2 -2 -2 -1 -1 -0 -0 -0 0 1 2 2 2 2 2 2 2 2 2 2 2 2 2 2 3 3 4 4 4
8 8 6 3 1 -1 -2 -2 -2 -2 -3 -3 -2 -2 -2 -2 -2 -1 -0 0 0 1 1 2 2 2 2 2 2 2 2 2 3 3 3 3 3 3 4 4 4 4 4
7 7 7 5 2 0 -1 -1 -2 -2 -2 -3 -2 -2 -2 -1 -1 -0 0 1 1 1 2 3 3 2 2 2 2 2 3 3 3 3 4 4 3 4 4 4 4 4 4
5 6 6 5 3 1 -0 -1 -1 -1 -2 -2 -2 -2 -1 -1 -0 0 1 1 1 2 3 3 3 2 2 2 2 2 3 3 3 4 4 4 4 5 5 4 3 3 3
6 6 5 5 4 3 1 -0 -1 -1 -1 -2 -2 -1 -1 -0 0 1 1 2 2 2 3 3 3 2 2 2 3 3 3 3 3 4 5 5 5 5 5 4 3 3 3
8 6 5 5 5 4 2 0 -0 -1 -1 -1 -1 -1 -1 -0 0 1 2 2 3 3 3 3 3 3 3 3 3 3 3 3 4 4 5 5 6 5 5 4 4 4 4
8 7 5 5 5 5 4 2 1 -0 -1 -1 -1 -1 -1 -1 0 1 2 3 3 4 4 4 4 4 4 4 3 3 3 4 4 5 5 5 6 5 4 4 4 4 4
8 7 5 4 5 5 4 3 2 1 -0 -1 -1 -2 -1 -1 -0 1 3 4 4 4 5 5 5 5 4 4 3 3 4 5 5 6 6 6 5 4 4 4 4 4 5
8 7 5 4 4 5 5 4 3 1 1 -0 -1 -2 -1 -1 -0 1 3 4 4 4 5 6 6 6 5 4 4 4 5 5 6 6 7 6 5 4 4 4 5 5 5
7 6 5 4 4 5 5 5 4 3 2 1 -0 -1 -0 0 0 1 2 4 4 5 5 6 6 6 5 4 4 5 6 6 6 7 7 7 6 5 5 5 5 5 6
6 6 4 4 4 5 5 6 6 5 3 2 1 0 1 2 2 1 2 3 4 5 5 6 6 5 5 5 5 5 6 6 6 7 8 7 7 6 6 6 6 7 7
5 5 4 4 4 4 5 5 6 6 5 4 3 3 2 3 3 2 2 3 4 5 5 6 5 5 6 6 6 6 6 6 7 7 8 8 8 7 7 7 7 8 8
4 4 4 3 3 3 3 4 4 5 5 5 5 5 4 4 3 2 1 2 4 5 5 6 6 6 6 6 6 6 6 7 7 8 8 8 8 8 8 8 8 8 8
4 4 3 2 2 1 1 2 3 3 4 4 5 6 6 5 4 3 2 2 3 4 5 6 6 6 7 7 6 6 7 7 8 8 9 8 8 8 8 8 8 8 8
3 3 2 1 0 0 1 1 2 2 3 2 3 4 5 5 5 3 2 2 3 4 5 6 6 6 7 7 7 7 7 8 8 9 9 9 9 9 9 9 9 10 9
3 2 1 0 0 1 1 1 2 2 2 2 2 2 4 5 4 4 3 3 3 4 5 5 6 6 6 6 7 7 8 9 9 9 9 10 10 11 11 11 11 11 11
3 2 1 1 1 2 2 2 1 2 2 2 1 1 2 4 4 4 4 4 3 3 4 5 6 6 6 6 7 7 9 9 10 10 11 11 12 12 13 13 13 13 13
2 2 2 2 3 3 3 2 1 1 2 2 1 1 2 3 4 5 5 4 3 3 4 5 5 6 6 6 7 8 9 10 11 11 12 12 12 13 13 13 13 13 13
2 2 2 3 3 3 3 3 2 2 2 1 1 2 2 4 5 5 5 4 3 3 3 4 5 6 6 7 7 8 10 11 12 12 12 12 12 12 12 12 12 12 12
1 2 2 3 3 3 3 3 2 2 2 2 2 2 3 4 5 6 6 5 4 3 3 4 5 6 6 7 7 8 10 11 12 12 12 12 12 12 11 11 11 11 11